284P/McNaught (2021)

Japanese version
Home page
Updated on March 27, 2022

---------------------------------------------------------------------

* Profile

* Pictures

* Orbital Elements

Epoch 2022 Jan. 21.0 TT = JDT 2459600.5
T 2021 Sept. 12.63025 TT                                Rudenko
q   2.2956699            (2000.0)            P               Q
n   0.13977992     Peri.  202.42352     +0.96836683     +0.21875391
a   3.6771063      Node   144.26280     -0.18615765     +0.95370334
e   0.3756857      Incl.   11.86134     -0.16616561     +0.20638959
P   7.05
From 2575 observations 2007 Apr. 17-2022 Jan. 31, mean residual 0".6.
     Nongravitational parameters A1 = +0.06, A2 = +0.0061.

* Finding Charts

* Magnitudes Graph

        m1 = 7.5 + 5 log d + 20.0 log r

---------------------------------------------------------------------

The orbital elements are published on M.P.E.C. 2022-C56.
The charts are made with StellaNavigator Ver.10 (AstroArts).
The magnitudes graphs are made with Comet for Windows.

---------------------------------------------------------------------

Copyright(C) Seiichi Yoshida (comet@aerith.net). All rights reserved.